Погода в Александровке

Россия / Самарская область     53°21′19″N   49°28′25″E
темп.,
°C
ветер,
м/с
пор.,
м/с
влажн.,
%
обл.,
%
осадки,
мм/ч
давл.,
гПа
погр.,
м
9 декабря, чт
чт901:00−1юв6149238 0.0 1027413
04:00−2юв61391100 0.0 1026411
07:00−2юв61387100 0.0 1025423
10:00−2юв61379100 0.0 1025434
13:00−1юв61175100 0.0 1024500
16:00−1юв5983100 0.0 1023374
19:00−1юв4886100 0.0 1023282
22:00−1вюв2495100 1.9 1023178
10 декабря, пт
пт1001:00−2в1291100 0.1 102384
04:00−2ссв2488100 0.1 1023114
07:00−2с2587100 0.0 1024161
10:00−2ссв498599 0.0 1025317
13:00−1ссв5986100 0.0 1025469
16:00−2ссв7129099 0.0 1027494
19:00−4ссв71291100 0.0 1028444
22:00−4ссв7128778 0.1 1029450
11 декабря, сб
сб1101:00−6ссв713835 0.0 1030362
04:00−7ссв613761 0.0 1031330
07:00−8ссв613741 0.0 1032359
10:00−8ссв513711 0.0 1034381
13:00−6св512620 0.0 1034418
16:00−6св512640 0.0 1035439
19:00−6св514630 0.0 1037405
22:00−7всв511651 0.0 1038375
12 декабря, вс
вс1201:00−7всв39701 0.0 1040283
04:00−8всв38711 0.0 1041221
07:00−8в27711 0.0 1041162
10:00−7в15714 0.0 1043156
13:00−5вюв23590 0.0 1043193
16:00−5вюв11661 0.0 104313
19:00−6вюв11702 0.0 104318
22:00−6юв11705 0.0 104317
13 декабря, пн
пн1301:00−7юв22695 0.0 104318
04:00−7юв22695 0.0 104322
07:00−8юв22705 0.0 104345
10:00−7юв24705 0.0 1043129
13:00−5ююв24591 0.0 1042199
16:00−6юв236618 0.0 104181
19:00−7юв227148 0.0 104142
22:00−7ююв2372100 0.0 104167